"Time","Temp","Dewpoint","Humidity","Pressure","Direction","Speed","Gust","Precip","PrecipRate"
"00:04:59","71.5","51.8","49.9","29.83","144","1","4.8","0.00","0.00"
"00:09:57","71.3","51.5","49.7","29.83","144","0.7","3.6","0.00","0.00"
"00:14:57","71.1","51.5","50","29.83","162","1.5","4.8","0.00","0.00"
"00:19:58","70.9","51.4","50.2","29.83","155","1.8","4.8","0.00","0.00"
"00:24:56","70.7","51.6","50.9","29.83","171","0.4","4.6","0.00","0.00"
"00:29:56","70.4","51.7","51.6","29.83","198","0.7","3.5","0.00","0.00"
"00:34:56","70.1","51.5","51.7","29.83","178","2.2","8.4","0.00","0.00"
"00:39:58","69.9","51.6","52.2","29.83","185","2.9","8.1","0.00","0.00"
"00:44:57","69.8","51.7","52.5","29.83","187","2.9","8.4","0.00","0.00"
"00:49:59","69.8","51.9","52.8","29.82","181","3.4","8.4","0.00","0.00"
"00:54:57","69.8","51.9","53","29.82","187","3.7","7.2","0.00","0.00"
"00:59:57","69.8","51.9","53","29.83","159","4.4","12","0.00","0.00"
"01:04:59","69.8","52","53.2","29.83","160","3.5","7.2","0.00","0.00"
"01:09:58","69.8","51.9","53","29.83","181","3.2","7.2","0.00","0.00"
"01:14:57","69.7","51.8","53","29.83","159","2.9","7.2","0.00","0.00"
"01:19:59","69.7","51.8","53","29.83","170","2.6","6","0.00","0.00"
"01:24:56","69.5","51.6","53","29.83","148","2.1","6","0.00","0.00"
"01:29:59","69.3","51.6","53.3","29.83","184","2.9","7.2","0.00","0.00"
"01:34:59","69.2","51.5","53.4","29.83","153","2.7","7.2","0.00","0.00"
"01:39:57","69.1","51.5","53.4","29.83","152","3.2","8.4","0.00","0.00"
"01:44:57","69","51.7","54","29.83","153","2.8","8.4","0.00","0.00"
"01:49:59","68.9","51.6","54","29.82","151","2.8","10.8","0.00","0.00"
"01:54:56","68.7","51.4","54","29.82","183","2.8","7.2","0.00","0.00"
"01:59:56","68.4","51.4","54.6","29.82","183","2.3","6","0.00","0.00"
"02:04:55","68.1","51.2","54.7","29.82","169","2.8","8.4","0.00","0.00"
"02:09:58","68","51.1","54.8","29.82","171","2.1","7.2","0.00","0.00"
"02:14:59","67.9","51.1","55","29.82","166","1.6","4.8","0.00","0.00"
"02:19:56","67.6","51","55.2","29.81","182","1.5","6","0.00","0.00"
"02:24:58","67.4","51.1","55.8","29.81","161","1.9","6","0.00","0.00"
"02:29:57","67.3","51.1","56","29.82","157","1.3","3.6","0.00","0.00"
"02:34:58","67.2","51","56","29.82","157","1.5","3.6","0.00","0.00"
"02:39:56","67.1","50.9","56","29.82","151","1.5","4.8","0.00","0.00"
"02:44:56","66.9","50.7","56","29.82","153","0.8","2.4","0.00","0.00"
"02:49:57","66.8","50.7","56.2","29.82","150","0.1","2.4","0.00","0.00"
"02:54:59","66.5","50.8","57","29.82","150","0.3","3.6","0.00","0.00"
"02:59:58","66.1","50.7","57.5","29.82","150","0","1.2","0.00","0.00"
"03:04:58","65.8","50.6","58","29.82","142","0.4","3.6","0.00","0.00"
"03:09:57","65.6","50.4","58","29.82","142","0.6","3.6","0.00","0.00"
"03:14:57","65.5","50.3","58","29.82","142","0.6","3.6","0.00","0.00"
"03:19:58","65.4","50.4","58.4","29.82","142","0","1.2","0.00","0.00"
"03:24:55","65.2","50.5","59","29.82","142","0","1.2","0.00","0.00"
"03:29:58","64.9","50.3","59.4","29.82","142","0.4","3.6","0.00","0.00"
"03:34:56","64.6","50.3","59.8","29.82","142","0.2","2.4","0.00","0.00"
"03:39:58","64.3","50.1","60","29.82","142","0.1","2.4","0.00","0.00"
"03:44:58","64.2","50","60","29.82","142","0.2","2.4","0.00","0.00"
"03:49:57","64","49.8","60","29.82","142","0","0","0.00","0.00"
"03:54:59","63.8","50.1","61.1","29.82","142","0","0","0.00","0.00"
"03:59:59","63.3","50","61.7","29.82","142","0","0","0.00","0.00"
"04:04:59","63","49.8","62","29.82","139","0.6","3.6","0.00","0.00"
"04:09:58","62.8","49.9","62.6","29.82","139","0.3","2.4","0.00","0.00"
"04:14:59","62.8","49.9","62.7","29.82","141","0.4","3.6","0.00","0.00"
"04:19:56","62.8","49.8","62.5","29.82","145","1.1","3.6","0.00","0.00"
"04:24:57","62.8","49.6","62","29.82","146","1.3","4.8","0.00","0.00"
"04:29:56","62.9","49.7","62","29.82","149","1.7","4.8","0.00","0.00"
"04:34:57","63.1","49.7","61.7","29.82","141","1.4","4.8","0.00","0.00"
"04:39:59","63.1","49.5","61.3","29.82","146","1.8","4.8","0.00","0.00"
"04:44:58","63.1","49.6","61.3","29.82","143","0.8","3.6","0.00","0.00"
"04:49:59","63.1","49.7","61.5","29.82","138","1.6","4.8","0.00","0.00"
"04:54:56","63.1","49.6","61.5","29.82","157","1.8","4.8","0.00","0.00"
"04:59:58","63","49.8","62","29.82","166","2.1","6","0.00","0.00"
"05:04:57","62.8","49.7","62.2","29.82","178","2.6","6","0.00","0.00"
"05:09:56","62.8","49.6","62","29.82","158","3.3","10.8","0.00","0.00"
"05:14:56","63","49.9","62.3","29.82","167","2.1","7.2","0.00","0.00"
"05:19:57","62.9","49.8","62.3","29.81","141","2.4","6","0.00","0.00"
"05:24:57","62.9","49.9","62.5","29.81","157","2.9","7.2","0.00","0.00"
"05:29:59","62.9","50","62.8","29.81","166","2.9","7.2","0.00","0.00"
"05:34:56","62.7","49.9","62.8","29.81","165","2.8","12","0.00","0.00"
"05:39:58","62.6","49.9","63.2","29.81","172","3.1","7.2","0.00","0.00"
"05:44:57","62.5","50","63.7","29.81","162","2.4","8.4","0.00","0.00"
"05:49:58","62.4","50.1","64","29.81","167","2.4","7.2","0.00","0.00"
"05:54:56","62.2","49.9","64","29.81","179","2.2","5.8","0.00","0.00"
"05:59:59","62","50","64.8","29.81","160","1.7","4.8","0.00","0.00"
"06:04:58","61.8","49.9","65","29.81","171","2.7","6","0.00","0.00"
"06:09:58","61.8","49.9","65.1","29.81","161","3.2","8.4","0.00","0.00"
"06:14:57","61.7","50.2","66","29.81","162","3.2","8.4","0.00","0.00"
"06:19:58","61.7","50.2","66","29.81","146","2.7","7.2","0.00","0.00"
"06:24:59","61.7","50.3","66.2","29.81","180","2.6","7.2","0.00","0.00"
"06:29:58","61.6","50.4","66.8","29.81","162","3.1","7.2","0.00","0.00"
"06:34:59","61.6","50.5","67","29.81","157","2.4","6","0.00","0.00"
"06:39:57","61.6","50.7","67.6","29.81","139","3.1","6","0.00","0.00"
"06:44:56","61.5","50.8","68.1","29.81","138","2.1","7.2","0.00","0.00"
"06:49:58","61.5","51.2","69","29.81","157","2.4","6.9","0.00","0.00"
"06:54:59","61.5","51.3","69.4","29.81","166","3.2","6","0.00","0.00"
"06:59:58","61.6","51.7","70","29.81","168","3.2","6","0.00","0.00"
"07:04:58","61.6","51.8","70.1","29.81","182","2","7.2","0.00","0.00"
"07:09:57","61.8","52.1","70.5","29.81","155","2.6","8.4","0.00","0.00"
"07:14:56","62.2","52.3","70","29.81","159","3.3","7.2","0.00","0.00"
"07:19:57","62.3","52.7","70.6","29.81","174","2.7","7.2","0.00","0.00"
"07:24:58","62.3","53","71.6","29.81","190","3.4","7.2","0.00","0.00"
"07:29:57","62.3","53.2","72","29.81","177","3.8","13.2","0.00","0.00"
"07:34:58","62.4","53.5","72.7","29.81","168","3","8.4","0.00","0.00"
"07:39:56","62.6","53.6","72.5","29.81","167","3.2","10.8","0.00","0.00"
"07:44:56","63","54","72.5","29.81","148","4","16.8","0.00","0.00"
"07:49:57","63.3","54.2","72.2","29.80","163","5.2","17.3","0.00","0.00"
"07:54:58","63.7","54.5","71.8","29.80","162","3.5","10.8","0.00","0.00"
"07:59:58","64","54.7","71.7","29.80","156","4.4","10.8","0.00","0.00"
"08:04:57","64","54.8","72","29.80","167","4.5","8.4","0.00","0.00"
"08:09:59","64","55","72.5","29.80","168","5.3","15","0.00","0.00"
"08:14:59","64","55.2","72.8","29.80","198","5.6","13.2","0.00","0.00"
"08:19:59","64","54.8","72","29.80","150","5.3","11.5","0.00","0.00"
"08:24:58","64.2","55.1","72.2","29.80","163","4.8","12","0.00","0.00"
"08:29:59","64.4","55.2","72","29.80","152","4.8","13.2","0.00","0.00"
"08:34:58","64.6","55.5","72.2","29.80","164","4.5","12","0.00","0.00"
"08:39:58","64.8","55.6","72.2","29.80","179","6.3","16.1","0.00","0.00"
"08:44:57","65.2","56","72.1","29.81","194","4.7","13.2","0.00","0.00"
"08:49:57","65.9","56.3","71.3","29.81","175","5.4","14.4","0.00","0.00"
"08:54:57","66.4","56.6","70.7","29.81","162","5.8","13.2","0.00","0.00"
"08:59:57","66.6","56.6","70.3","29.81","173","6.7","17.3","0.00","0.00"
"09:04:57","67","57","70.3","29.81","147","6.4","15","0.00","0.00"
"09:09:59","67.5","57.1","69.4","29.81","195","8.1","17.3","0.00","0.00"
"09:14:59","67.3","57","69.3","29.81","197","6.1","19.2","0.00","0.00"
"09:19:59","66.9","56.7","69.7","29.81","170","6.6","16.1","0.00","0.00"
"09:24:59","66.8","56.8","70.2","29.81","195","5.5","16.1","0.00","0.00"
"09:29:57","67","57.2","70.8","29.82","183","5.7","13.2","0.00","0.00"
"09:34:56","67.3","57.1","69.9","29.82","173","5.7","13.2","0.00","0.00"
"09:39:56","67.3","57.3","70.2","29.82","201","5.9","15","0.00","0.00"
"09:44:57","67","57","70.2","29.82","181","5","12.7","0.00","0.00"
"09:49:57","66.8","57","70.7","29.82","173","4.5","14.4","0.00","0.00"
"09:54:56","66.7","57.1","71.3","29.82","198","4.2","15","0.00","0.00"
"09:59:57","66.7","57.4","72","29.82","194","4","8.4","0.00","0.00"
"10:04:57","66.8","57.4","71.6","29.82","170","3.2","7.2","0.00","0.00"
"10:09:56","67","57.5","71.6","29.82","204","5.5","10.8","0.00","0.00"
"10:14:59","67.1","57.4","70.8","29.82","196","6.7","16.1","0.00","0.00"
"10:19:59","67.2","57.5","70.9","29.82","202","5.2","12","0.00","0.00"
"10:24:58","67.2","57.3","70.5","29.82","184","4.1","8.1","0.00","0.00"
"10:29:58","67.3","57.5","70.8","29.82","171","3.4","7.2","0.00","0.00"
"10:34:58","67.5","58","71.5","29.82","187","2.4","6","0.00","0.00"
"10:39:57","67.8","58.1","71","29.82","191","5.1","15","0.00","0.00"
"10:44:59","68.3","58.2","70.3","29.82","183","4.7","15","0.00","0.00"
"10:49:59","68.8","58.5","69.7","29.81","186","5.5","10.8","0.00","0.00"
"10:54:58","69.2","58.6","69","29.81","156","4.7","12","0.00","0.00"
"10:59:57","69.6","58.8","68.6","29.81","152","3.7","11.5","0.00","0.00"
"11:04:57","69.9","59","68.4","29.80","155","3.7","10.8","0.00","0.00"
"11:09:56","70.1","59.3","68.5","29.80","166","4.5","8.4","0.00","0.00"
"11:14:59","70.4","59.6","68.6","29.80","197","4.5","10.8","0.00","0.00"
"11:19:59","70.7","59.7","68.1","29.80","190","6.6","13.2","0.00","0.00"
"11:24:58","70.8","59.5","67.5","29.80","183","6.3","15","0.00","0.00"
"11:29:57","71.1","59.7","67.1","29.80","178","5.1","12","0.00","0.00"
"11:34:57","71.1","59.9","67.8","29.78","192","5.3","13.2","0.00","0.00"
"11:39:57","70.9","59.7","67.9","29.78","150","3.2","12","0.00","0.00"
"11:44:57","70.6","59.4","67.8","29.78","179","5.6","12","0.00","0.00"
"11:49:56","70.2","59.2","68.3","29.77","195","5.4","15","0.00","0.00"
"11:54:56","69.7","58.9","68.6","29.77","158","5.4","13.2","0.00","0.00"
"11:59:56","69.2","58.5","68.7","29.77","167","6.1","15","0.00","0.00"
"12:04:56","69","58.6","69.3","29.77","171","4.3","10.8","0.00","0.00"
"12:09:59","69","58.7","69.8","29.77","191","3.8","8.4","0.00","0.00"
"12:14:57","69","58.7","69.8","29.77","161","5.4","13.2","0.00","0.00"
"12:19:56","68.9","58.5","69.5","29.77","160","7.4","18","0.00","0.00"
"12:24:56","68.8","58.5","69.7","29.77","147","6.2","15","0.00","0.00"
"12:29:56","68.9","58.7","70","29.77","161","5.6","13.2","0.00","0.00"
"12:34:59","69.1","58.9","70","29.77","145","5.3","15","0.00","0.00"
"12:39:56","69.4","59.2","70","29.77","158","6","16.8","0.00","0.00"
"12:44:57","69.6","59.4","70","29.77","127","4.9","17.3","0.00","0.00"
"12:49:56","69.6","59.5","70.3","29.76","171","4.9","12","0.00","0.00"
"12:54:56","69.4","59.1","69.8","29.76","162","5.6","13.2","0.00","0.00"
"12:59:57","69.1","58.9","70","29.76","144","4.4","12.7","0.00","0.00"
"13:04:56","69","58.9","70.3","29.75","161","5.5","12","0.00","0.00"
"13:09:59","68.9","59","70.7","29.75","141","3.4","12","0.00","0.00"
"13:14:56","68.7","58.7","70.5","29.75","183","4.9","11.5","0.00","0.00"
"13:19:57","68.5","58.7","70.9","29.74","179","3.7","7.2","0.00","0.00"
"13:24:56","68.3","58.9","72.1","29.74","170","4.2","8.4","0.02","0.01"
"13:29:56","67.4","60","77.1","29.76","178","4.1","8.4","0.14","0.09"
"13:34:59","65.2","59.8","82.4","29.76","187","4.9","19.2","0.26","0.25"
"13:39:59","62.6","57.3","82.9","29.76","203","8.9","19.6","0.30","0.30"
"13:44:56","60.4","56.5","87.1","29.78","217","4.7","10.4","0.33","0.32"
"13:49:56","59.6","56.8","90.4","29.78","246","6.6","15","0.34","0.34"
"13:54:56","59.4","56.8","90.8","29.78","271","6.1","21.9","0.36","0.35"
"13:59:57","58.7","55.7","89.8","29.81","261","5.7","16.1","0.37","0.37"
"14:04:57","58.1","55.4","90.4","29.81","224","5","15","0.39","0.39"
"14:09:56","57.8","55.2","91","29.81","274","3.9","9.6","0.41","0.41"
"14:14:59","57.6","55.2","91.8","29.81","269","2.8","7.2","0.44","0.43"
"14:19:59","57.4","55.1","92","29.80","299","1.8","6","0.45","0.45"
"14:24:59","57.3","55","92","29.80","304","1.3","5.8","0.47","0.46"
"14:29:58","57.3","55.1","92.5","29.80","298","1.4","3.5","0.48","0.45"
"14:34:58","57.3","55.3","93","29.79","298","0.1","2.4","0.50","0.34"
"14:39:56","57.3","55.3","93","29.79","298","0.2","2.3","0.51","0.24"
"14:44:56","57.3","55.3","93","29.79","298","0.3","1.2","0.51","0.20"
"14:49:57","57.4","55.4","93.1","29.78","298","0","1.2","0.51","0.18"
"14:54:57","57.8","56.1","94","29.78","298","0.4","2.4","0.52","0.17"
"14:59:59","58.4","56.9","94.9","29.78","298","0.4","2.4","0.52","0.16"
"15:04:59","59","57.4","94.3","29.76","298","0.5","2.4","0.52","0.15"
"15:09:58","59.1","57","92.6","29.76","298","0","1.2","0.52","0.13"
"15:14:55","59.2","56.8","91.5","29.78","296","1.1","3.6","0.52","0.11"
"15:19:59","59.2","56.6","91.1","29.78","296","1.7","3.6","0.52","0.08"
"15:24:58","59.1","56.5","91","29.78","296","0.3","1.2","0.52","0.07"
"15:29:59","59.2","56.6","91","29.78","296","0","1.2","0.52","0.05"
"15:34:56","59.5","57","91.3","29.77","244","0","1.2","0.52","0.04"
"15:39:56","59.5","56.6","90","29.77","244","0","1.2","0.52","0.02"
"15:44:59","59.6","56.7","90","29.77","244","0.5","2.4","0.52","0.01"
"15:49:56","59.6","56.9","90.6","29.76","265","0.6","3.6","0.52","0.01"
"15:54:56","59.7","57.4","92.1","29.76","277","1","3.5","0.52","0.01"
"15:59:56","59.7","57.2","91.2","29.76","277","0.8","2.4","0.52","0.00"
"16:04:57","59.7","56.9","90.3","29.76","277","0.8","2.4","0.52","0.00"
"16:09:56","59.9","57.1","90.5","29.76","277","0.4","2.4","0.52","0.00"
"16:14:58","60","57","89.7","29.78","276","0.6","2.4","0.52","0.00"
"16:19:58","60.1","57.1","89.8","29.78","276","0.7","2.4","0.52","0.00"
"16:24:58","60.1","57.2","90.3","29.78","275","1.6","3.6","0.52","0.00"
"16:29:59","60.1","57.5","91","29.79","275","0.6","2.4","0.52","0.00"
"16:34:59","60.2","57.5","90.8","29.79","275","0.7","3.6","0.52","0.00"
"16:39:56","60.2","57.4","90.3","29.79","275","0.4","2.4","0.52","0.00"
"16:44:57","60.2","57.3","90","29.79","275","0.5","2.4","0.52","0.00"
"16:49:57","60.3","57.6","90.6","29.79","275","0.3","2.4","0.52","0.00"
"16:54:58","60.4","58","91.5","29.79","273","0.5","2.4","0.52","0.00"
"16:59:57","60.4","57.8","91","29.79","270","0.3","2.4","0.52","0.00"
"17:04:56","60.4","57.8","91","29.79","270","0.1","1.2","0.52","0.00"
"17:09:59","60.5","57.7","90.3","29.79","270","0.4","1.2","0.52","0.00"
"17:14:57","60.6","57.9","90.7","29.79","268","0.4","2.4","0.52","0.00"
"17:19:57","60.8","58.1","90.7","29.79","235","1.6","3.6","0.52","0.00"
"17:24:58","60.9","57.7","89.3","29.79","155","1.3","3.5","0.52","0.00"
"17:29:59","60.9","57.6","89.3","29.80","154","0.7","3.6","0.52","0.00"
"17:34:56","61","57.7","89.2","29.80","154","0.2","1.2","0.52","0.00"
"17:39:57","60.9","57.4","88.3","29.80","148","0.2","1.2","0.52","0.00"
"17:44:58","60.9","57.4","88.4","29.80","142","0","0","0.52","0.00"
"17:49:58","61","57.8","89.5","29.80","142","0.9","3.6","0.52","0.00"
"17:54:59","61","57.7","89","29.80","142","0.7","2.4","0.52","0.00"
"17:59:56","61","57.7","89","29.81","142","0.2","2.4","0.52","0.00"
"18:04:57","61","57.8","89.3","29.81","142","0.1","1.2","0.52","0.00"
"18:09:56","61.3","58.2","89.5","29.81","142","0.3","1.2","0.52","0.00"
"18:14:58","61.8","58.2","88","29.81","142","0.2","1.2","0.52","0.00"
"18:19:59","62.4","58.5","87.1","29.80","142","0","0","0.52","0.00"
"18:24:59","62.6","58.6","86.5","29.80","142","0.3","2.4","0.52","0.00"
"18:29:59","62.5","58.2","85.8","29.80","141","1.6","3.6","0.52","0.00"
"18:34:59","62.3","57.9","85.7","29.79","128","0.7","2.4","0.52","0.00"
"18:39:56","62.1","57.9","86.3","29.79","128","0.6","2.4","0.52","0.00"
"18:44:56","61.9","57.9","86.5","29.80","35","1.4","3.6","0.52","0.00"
"18:49:56","61.7","57.6","86.4","29.80","337","4.3","21.6","0.52","0.00"
"18:54:56","60.6","54.2","79.2","29.80","320","8.3","21.9","0.52","0.00"
"18:59:59","59.6","53.3","79.4","29.82","323","5.4","12","0.52","0.00"
"19:04:59","59","52.5","79","29.82","323","3.8","16.1","0.52","0.00"
"19:09:58","58.5","52.3","79.8","29.82","323","3.7","9.6","0.52","0.00"
"19:14:58","58.1","52.3","81.1","29.83","328","3","8.4","0.52","0.00"
"19:19:58","57.7","52.3","82.3","29.83","291","1.6","4.8","0.52","0.00"
"19:24:58","57.4","52.5","83.5","29.83","346","1.2","3.6","0.52","0.00"
"19:29:58","57.1","52.3","84","29.83","351","0.8","3.6","0.52","0.00"
"19:34:59","56.8","52.9","86.6","29.81","350","1.5","2.4","0.52","0.00"
"19:39:56","56.5","53","87.8","29.81","350","0.8","2.4","0.52","0.00"
"19:44:59","56.3","52.6","87.4","29.82","350","0.2","2.4","0.52","0.00"
"19:49:56","56.2","52.6","87.7","29.82","350","0.3","1.2","0.52","0.00"
"19:54:57","56.2","52.6","87.7","29.82","350","0.1","1.2","0.52","0.00"
"19:59:57","56.1","52.8","88.6","29.84","350","0.2","1.2","0.52","0.00"
"20:04:58","56.1","53.1","89.7","29.84","350","0","1.2","0.52","0.00"
"20:09:57","56","53","89.8","29.84","350","0.1","1.2","0.52","0.00"
"20:14:58","55.8","52.9","90","29.84","350","0.1","1.2","0.52","0.00"
"20:19:59","55.8","52.9","90","29.84","350","0.1","1.2","0.52","0.00"
"20:24:56","55.8","52.9","90","29.84","350","0.2","1.2","0.52","0.00"
"20:29:57","55.9","53","90","29.85","350","0.3","3.6","0.52","0.00"
"20:34:58","55.9","53","90.2","29.85","350","0.8","2.4","0.52","0.00"
"20:39:59","55.8","53.2","91","29.85","350","0.7","2.4","0.52","0.00"
"20:44:58","55.7","53.1","91","29.85","350","0","2.3","0.52","0.00"
"20:49:58","55.6","53.2","91.8","29.85","350","0.4","2.4","0.52","0.00"
"20:54:59","55.5","53.2","92","29.85","350","0","1.2","0.53","0.01"
"20:59:59","55.4","53.1","92","29.86","20","0.3","4.8","0.53","0.01"
"21:04:56","55.4","52.8","90.9","29.86","355","1","4.6","0.53","0.01"
"21:09:59","55.5","52.9","91","29.86","355","0.4","2.4","0.53","0.01"
"21:14:56","55.5","53","91.5","29.86","355","0.3","2.4","0.53","0.01"
"21:19:56","55.3","52.7","91","29.86","355","0","0","0.53","0.01"
"21:24:57","55.3","52.7","91","29.86","355","0","0","0.53","0.01"
"21:29:56","55.3","52.9","91.9","29.87","355","0","0","0.53","0.01"
"21:34:59","55.1","52.7","91.6","29.87","355","0","1.2","0.53","0.01"
"21:39:57","55","52.5","91.2","29.87","355","0.9","2.4","0.53","0.01"
"21:44:58","55","52.7","91.9","29.87","355","0.7","2.4","0.53","0.01"
"21:49:58","54.9","52.6","92","29.87","355","0.4","2.4","0.53","0.01"
"21:54:59","54.8","52.5","92","29.87","355","0.1","1.2","0.53","0.01"
"21:59:59","54.5","52","91.2","29.87","355","0.1","1.2","0.53","0.00"
"22:04:56","54.4","51.8","91","29.87","355","0.1","1.2","0.53","0.00"
"22:09:59","54.2","51.5","90.7","29.87","355","0.2","2.4","0.53","0.00"
"22:14:56","54","51","89.6","29.87","355","0.1","1.2","0.53","0.00"
"22:19:57","53.9","50.8","89.4","29.87","355","0","1.2","0.53","0.00"
"22:24:58","53.9","51.3","91","29.87","355","0","0","0.53","0.00"
"22:29:59","53.7","51.1","91","29.87","355","0","0","0.53","0.00"
"22:34:56","53.6","51","91","29.87","355","0","0","0.53","0.00"
"22:39:58","53.5","51","91.3","29.87","355","0","0","0.53","0.00"
"22:44:57","53.4","51.1","92","29.87","355","0","0","0.53","0.00"
"22:49:58","53.4","51.1","92.2","29.87","355","0","0","0.53","0.00"
"22:54:59","53.3","51.3","93","29.87","355","0","1.2","0.53","0.00"
"22:59:59","53.2","51.2","93","29.87","355","0","0","0.53","0.00"
"23:04:59","53.2","51.2","93","29.87","355","0","0","0.53","0.00"
"23:09:59","53.1","51.1","92.9","29.87","355","0","0","0.53","0.00"
"23:14:57","53","50.7","92","29.87","355","0","0","0.53","0.00"
"23:19:57","52.8","50.5","92","29.87","355","0","0","0.53","0.00"
"23:24:58","52.7","50.5","92.1","29.87","355","0","0","0.53","0.00"
"23:29:59","52.6","50.6","93","29.87","355","0","0","0.53","0.00"
"23:34:56","52.4","50.4","93","29.87","355","0","0","0.53","0.00"
"23:39:57","52.3","50.2","92.6","29.87","355","0","0","0.53","0.00"
"23:44:58","52.2","50","92.5","29.87","355","0","0","0.53","0.00"
"23:49:59","52","50","93","29.87","355","0","1.2","0.53","0.00"
"23:54:56","51.8","49.8","93","29.87","355","0","0","0.53","0.00"
